Regional Weather Roundup
Issued by NWS State College, PA

Home | Current Version | Previous Version | Text Only | Print | Product List | Glossary On
Versions: 1 2 3 4 5 6 7 8 9 10 11 12 13 14 15 16 17 18 19 20 21 22 23 24 25 26 27 28 29 30 31 32 33 34 35 36 37 38 39 40 41 42 43 44 45 46 47 48 49 50
000
ASUS41 KCTP 280103
RWRCTP

REGIONAL WEATHER ROUNDUP
NATIONAL WEATHER SERVICE STATE COLLEGE PA
800 PM EST THU NOV 27 2014

Note: "fair" indicates few or no clouds below 12,000 feet with no
significant weather and/or obstructions to visibility.

* = STATION THAT DOES NOT REPORT PRECIPITATION /E.G. RAIN...SNOW...ETC/
    THUNDER OR FOG.

PAZ002>004-007>009-013>016-020>023-029>032-280200-
WESTERN PENNSYLVANIA

CITY           SKY/WX    TMP DP  RH WIND       PRES   REMARKS
ERIE           CLOUDY    33  24  69 NW20G29   30.14R
MEADVILLE      LGT SNOW  28  25  88 W7        30.12R VSB 1
FRANKLIN*      CLOUDY    27  21  80 W8        30.13S
NEW CASTLE     LGT SNOW  28  25  89 SW9       30.19S FOG
BEAVER COUNTY  NOT AVBL
BUTLER*        MOCLDY    28  23  80 SW9       30.18R
PITTSBURGH INT LGT SNOW  29  25  85 W10       30.19R FOG
PITTSBURGH     CLOUDY    29  22  75 W9G17     30.17R
INDIANA*       CLOUDY    28  25  86 NW8G15    30.17R
LATROBE        MOCLDY    30  25  80 W7        30.19R
WASHINGTON CO* CLOUDY    28  25  86 W7        30.22R
$$

PAZ004>006-010>012-017>019-024>028-033>037-041-042-045-046-049>053-280200-
CENTRAL PENNSYLVANIA

CITY           SKY/WX    TMP DP  RH WIND       PRES   REMARKS
BRADFORD       LGT SNOW  26  22  84 W5        30.03S VSB 1
DUBOIS         CLOUDY    27  23  85 W13       30.08R
CLEARFIELD     CLOUDY    29  23  78 W8        30.08R
JOHNSTOWN      LGT SNOW  25  21  85 W17G26    30.07R FOG     WCI  12
ALTOONA        FLURRIES  31  26  82 NW15      30.10R
STATE COLLEGE  CLOUDY    32  27  80 W9        30.08R
WILLIAMSPORT   CLOUDY    31  27  85 CALM      30.08R
SELINSGROVE    CLOUDY    29  27  92 CALM      30.10R
FT INDIANTOWN  CLEAR     30  28  91 VRB2      30.08F
CAPITAL CITY   MOCLDY    32  30  92 SW3       30.11R
HARRISBURG     PTCLDY    32  29  88 NW6       30.10R
YORK           CLEAR     28  26  92 CALM      30.11R FOG
$$

PAZ038>040-043-044-047-048-054-055-060>062-067>071-280200-
EASTERN PENNSYLVANIA

CITY           SKY/WX    TMP DP  RH WIND       PRES   REMARKS
SCRANTON       CLEAR     27  19  72 W9        30.05R
MOUNT POCONO   FAIR      24  19  81 NW7       29.97R
ALLENTOWN      CLEAR     30  24  78 W6        30.08R
QUAKERTOWN*    CLEAR     28  27  93 CALM      30.08R
READING        CLEAR     31  25  78 CALM      30.08S
LANCASTER      PTCLDY    31  27  85 W3        30.09S
COATESVILLE    CLEAR     30  27  86 NW5       30.08S
POTTSTOWN      CLEAR     30  25  81 CALM      30.10R
BLUE BELL      CLEAR     34  28  80 CALM      30.07S
DOYLESTOWN     CLEAR     30  27  88 W3        30.07R
WILLOW GROVE   NOT AVBL
NORTH PHILA    CLEAR     34  25  69 NW7       30.10R
PHILADELPHIA   CLEAR     36  26  67 W7        30.11R
$$



USA.gov is the U.S. government's official web portal to all federal, state and local government web resources and services.